sat.trackr.live / text

‹ back to catalog

STARLINK-34073

NORAD 64606 · 2025-137N

PAYLOAD ACTIVE UNKNOWN

§ Identity

Operator
Country
US
Launch date
2025-06-25
Launch site
AFETR
Launch vehicle
Mass (kg)
RCS (m²)

Purposes: comms

External: N2YO · Heavens-Above · Gunter

§ Orbital elements

Epoch: 2026-05-24T19:41:39.994656Z

Period
94.10 min
Inclination
53.1597°
Eccentricity
0.0001148
Mean motion
15.30209372 rev/d
Perigee alt
474.4 km
Apogee alt
476.0 km
Semi-major
6,853.3 km
B*
6.5289e-4
RAAN
341.4158°
Arg perigee
50.0996°
Mean anomaly
310.0106°
Rev number
5,227

§ Raw data

STARLINK-340731 64606U 25137N   26144.82060179  .00019033  00000+0  65289-3 0  99982 64606  53.1597 341.4158 0001148  50.0996 310.0106 15.30209372 52272

JSON: /api/v1/satellites/64606 · /tle

For live sub-satellite position, see the globe view (requires WebGL).

§ Visibility from observer

Set your observer location to see the next 7 days of passes ≥ 10°. The values pass through the URL so the page stays shareable.

No JS? Fill the form by hand. The geolocation button needs JavaScript.